Location: Yecla
(38.6122°N, 1.1101°W)
Time: 15:22:34
(UTC+02:00)

ISS - Visible Passes

Search period start: 25 September 2022 00:00
Search period end: 05 October 2022 00:00
Orbit: 414 x 417 km, 51.6° (Epoch: 25 September)

Date Brightness Start Highest point End Pass type
(mag) Time Alt. Az. Time Alt. Az. Time Alt. Az.
25 Sep -0.7 22:11:02 10° N 22:11:13 10° N 22:11:13 10° N visible
26 Sep -1.0 21:23:00 10° N 21:23:35 10° N 21:24:11 10° NNE visible
27 Sep -0.8 22:09:48 10° NNW 22:10:25 13° NNW 22:10:25 13° NNW visible
28 Sep -1.5 21:21:26 10° NNW 21:23:29 15° NNE 21:23:35 15° NNE visible
29 Sep -1.3 20:33:09 10° N 20:34:31 12° NNE 20:35:53 10° NE visible
29 Sep -1.0 22:08:44 10° NW 22:09:39 17° NNW 22:09:39 17° NNW visible
30 Sep -2.3 21:20:12 10° NNW 21:22:53 26° NNE 21:22:53 26° NNE visible
01 Oct -1.9 20:31:44 10° NNW 20:34:13 19° NNE 20:36:10 13° ENE visible
01 Oct -1.1 22:07:54 10° NW 22:09:03 20° WNW 22:09:03 20° WNW visible
02 Oct -3.7 21:19:09 10° NW 21:22:24 65° NNE 21:22:24 65° NNE visible
03 Oct -3.0 20:30:30 10° NW 20:33:39 38° NNE 20:35:50 17° E visible
03 Oct -0.9 22:07:35 10° W 22:08:44 16° W 22:08:44 16° W visible
04 Oct -2.7 21:18:24 10° WNW 21:21:33 39° SW 21:22:17 34° SSW visible
